User: anonymous   Login
Location: Barrio Pajares
(40.5500°N, 4.1667°W)
Time: 13:40:26
(UTC+00:00)
Language:

SL-4 R/B - Orbit

View from above orbital plane
View from above orbital plane
View from above satellite
View from above satellite

Ground track
Ground track

The orbit data is extracted from the following two-line orbital elements,

1 39679U 14021B   24173.30965335  .00011343  00000-0  41916-3 0  9999
2 39679  51.6121 109.4238 0136916  12.7010 347.7359 15.19827188560397
Epoch (UTC): 21 June 2024 07:25:54
Eccentricity: 0.0136916
inclination: 51.6121°
perigee height: 412 km
apogee height: 600 km
right ascension of ascending node: 109.4238°
argument of perigee: 12.7010°
revolutions per day: 15.19827188
mean anomaly at epoch: 347.7359°
orbit number at epoch: 56039

The dashed part of the orbit path shows where the satellite is in the earth's shadow,  

DLR